This is the latest recevied weather packets stored in our database for station/object IW1CGW-13. If no packets are shown the sender has not sent any weather packets the latest 10 day(s).
| Time | Temp. | Humidity | Pressure | Rain* | Wind** | Luminosity | Snow |
|---|---|---|---|---|---|---|---|
| 1777981897 | 11.11° C | 78% | 1012.6 hPa | - | - | - | - |
| 1777981276 | 11.11° C | 78% | 1012.6 hPa | - | - | - | - |
| 1777980652 | 11.67° C | 78% | 1012.7 hPa | - | - | - | - |
| 1777980031 | 11.67° C | 78% | 1012.8 hPa | - | - | - | - |
| 1777979409 | 11.11° C | 78% | 1012.8 hPa | - | - | - | - |
| 1777978164 | 10.56° C | 78% | 1013 hPa | - | - | - | - |
| 1777977543 | 11.11° C | 77% | 1013 hPa | - | - | - | - |
| 1777976922 | 11.11° C | 77% | 1012.9 hPa | - | - | - | - |
| 1777976301 | 11.11° C | 77% | 1012.9 hPa | - | - | - | - |
| 1777975680 | 11.67° C | 77% | 1012.9 hPa | - | - | - | - |
| 1777975059 | 11.67° C | 77% | 1012.9 hPa | - | - | - | - |
| 1777974438 | 11.67° C | 77% | 1012.8 hPa | - | - | - | - |
| 1777973818 | 11.11° C | 78% | 1012.9 hPa | - | - | - | - |
| 1777973175 | 11.11° C | 76% | 1012.9 hPa | - | - | - | - |
| 1777972555 | 11.67° C | 76% | 1012.9 hPa | - | - | - | - |
| 1777971934 | 12.22° C | 76% | 1012.7 hPa | - | - | - | - |
| 1777971313 | 12.78° C | 75% | 1012.8 hPa | - | - | - | - |
| 1777970692 | 11.67° C | 77% | 1012.7 hPa | - | - | - | - |
| 1777970071 | 12.22° C | 75% | 1012.7 hPa | - | - | - | - |
| 1777969447 | 11.11° C | 76% | 1012.7 hPa | - | - | - | - |
| 1777968825 | 10.56° C | 77% | 1012.7 hPa | - | - | - | - |
| 1777968204 | 10° C | 78% | 1012.7 hPa | - | - | - | - |
| 1777967584 | 10° C | 78% | 1012.9 hPa | - | - | - | - |
| 1777966963 | 10° C | 78% | 1012.8 hPa | - | - | - | - |
| 1777965721 | 8.89° C | 78% | 1013.1 hPa | - | - | - | - |
* Rain since midnight (hover to see other rain measurements)
** Current wind speed in m/s (hover to see current wind gust speed)